Location: Peterborough
(44.3091°N, 78.3197°W)
Time: 05:12:10
(UTC-04:00)

A-11 Canister half - Pass Details

Date: 13 December 2023
Orbit: 1515 x 1684 km, 47.2° (Epoch: 10 September)

Event Time Altitude Azimuth Distance (km) Brightness Sun altitude
Exits shadow 06:04:02 18° 264° (W) 3,300 10.2 -16.5°
Maximum altitude 06:08:22 24° 231° (SW) 2,946 10.2 -15.8°
Drops below altitude 10° 06:15:52 10° 183° (S) 3,935 11.3 -14.5°
Sets 06:19:50 0° 170° (S) 4,923 12.1 -13.8°
